W8KJR Weather Reports


Display with metric or nautical units.
time (UTC)temp
F
wind
direction
speed
MPH
gust
MPH
rain 1hr
in
rain 24hr
in
rain mn
in
humidity
%
barometer
mb
20260503223120 56 109 0.0 2.0 0.00 0.00 0.00 60 1011.8
20260503221619 57 91 2.0 4.0 0.00 0.00 0.00 59 1011.7
20260503220115 60 94 1.0 2.0 0.00 0.00 0.00 42 1011.4
20260503214613 61 328 3.0 4.0 0.00 0.00 0.00 40 1011.4
20260503213110 60 89 1.0 6.0 0.00 0.00 0.00 41 1011.5
20260503211608 61 285 4.0 6.0 0.00 0.00 0.00 41 1011.6
20260503204558 61 251 1.0 2.0 0.00 0.00 0.00 42 1011.7
20260503203055 62 92 2.0 3.0 0.00 0.00 0.00 39 1012.1
20260503201554 64 167 1.0 6.0 0.00 0.00 0.00 38 1012.1
20260503200050 62 130 2.0 3.0 0.00 0.00 0.00 39 1012.5
20260503194547 63 175 1.0 2.0 0.00 0.00 0.00 37 1012.7
20260503193044 63 133 2.0 3.0 0.00 0.00 0.00 37 1012.5
20260503191539 63 310 1.0 2.0 0.00 0.00 0.00 38 1013.0
20260503190036 63 157 4.0 8.0 0.00 0.00 0.00 37 1013.5
20260503184534 63 273 1.0 1.0 0.00 0.00 0.00 39 1013.3
20260503183031 62 75 3.0 8.0 0.00 0.00 0.00 41 1013.6
20260503181529 63 295 0.0 3.0 0.00 0.00 0.00 40 1013.7
20260503180026 63 39 3.0 4.0 0.00 0.00 0.00 39 1013.9
20260503174524 63 276 2.0 3.0 0.00 0.00 0.00 39 1013.9
20260503173023 62 298 4.0 6.0 0.00 0.00 0.00 41 1014.1
20260503171520 0 0.0 0.0 0.00 0.00 0.00 1014.3
20260503081346 33 288 0.0 0.0 0.00 0.00 0.00 90 1015.8
20260503072840 33 288 0.0 0.0 0.00 0.00 0.00 89 1015.9
20260503071337 34 288 0.0 0.0 0.00 0.00 0.00 88 1016.0
20260503054327 35 288 0.0 0.0 0.00 0.00 0.00 87 1016.1
20260503052825 35 288 0.0 0.0 0.00 0.00 0.00 87 1016.2
20260503051321 35 288 0.0 0.0 0.00 0.00 0.00 86 1016.3
20260503045817 36 288 0.0 0.0 0.00 0.00 0.00 85 1016.5
20260503044314 36 288 0.0 0.0 0.00 0.00 0.00 87 1016.2
20260503042809 36 288 0.0 0.0 0.00 0.00 0.00 85 1016.3
20260503041306 37 288 0.0 0.0 0.00 0.00 0.00 85 1016.4
20260503035803 37 288 0.0 0.0 0.00 0.00 0.00 84 1016.4
20260503034300 38 288 0.0 0.0 0.00 0.00 0.00 85 1016.2
20260503032758 38 288 0.0 0.0 0.00 0.00 0.00 85 1016.2
20260503031257 39 288 0.0 0.0 0.00 0.00 0.00 83 1016.4
20260503025757 39 288 0.0 0.0 0.00 0.00 0.00 77 1016.3
20260503024255 40 288 0.0 0.0 0.00 0.00 0.00 74 1016.5
20260503022750 40 288 0.0 0.0 0.00 0.00 0.00 74 1016.8
20260503021249 41 288 0.0 0.0 0.00 0.00 0.00 73 1016.7
20260503015747 41 288 0.0 0.0 0.00 0.00 0.00 73 1016.5
20260503014243 41 288 0.0 0.0 0.00 0.00 0.00 73 1016.3
20260503012741 42 288 0.0 0.0 0.00 0.00 0.00 68 1016.4
20260503011238 42 288 0.0 0.0 0.00 0.00 0.00 67 1016.4
20260503005734 42 288 0.0 0.0 0.00 0.00 0.00 64 1016.3
20260503004231 43 288 0.0 0.0 0.00 0.00 0.00 63 1016.4
20260503002728 44 288 0.0 0.0 0.00 0.00 0.00 59 1016.4
20260503001223 46 311 0.0 0.0 0.00 0.00 0.00 54 1016.1
20260502235721 46 296 0.0 1.0 0.00 0.00 0.00 50 1016.2
20260502234218 47 296 1.0 1.0 0.00 0.00 0.00 50 1016.1
20260502232718 47 209 1.0 1.0 0.00 0.00 0.00 50 1015.9
20260502231216 48 81 0.0 0.0 0.00 0.00 0.00 48 1016.2
20260502225714 48 199 1.0 2.0 0.00 0.00 0.00 46 1016.2